Precipitable_Water
0.42 0.27 0.26 0.20 0.20 0.24 0.25 0.29 0.32 0.34 0.33 0.34 0.33 0.38 0.44 0.49 0.56 0.64 0.65 0.68 0.71 0.66 0.61 0.60 0.60 0.59 0.60 0.62 0.68 0.84 0.88 0.83 0.82 0.84 0.93 1.05 1.12 1.14 1.12 1.12 1.12 1.12 1.10 1.20 1.21 1.20 1.20 1.22 1.25 1.27 1.29 1.28 1.29 1.27 1.25 1.24 1.25 1.24 1.23 1.22 1.19 1.25 1.32 1.29 1.25 1.25 1.22 1.17 1.18 1.20 1.19 1.16 1.23 1.25 1.31 1.32 1.35 1.39 1.45 1.47 1.47 1.50 1.47 1.50 1.54 1.57
0.34 0.22 0.22 0.23 0.22 0.26 0.26 0.27 0.29 0.30 0.30 0.33 0.35 0.36 0.39 0.45 0.49 0.61 0.68 0.67 0.69 0.63 0.61 0.63 0.57 0.57 0.62 0.66 0.68 0.70 0.83 0.79 0.77 0.78 0.85 0.97 1.06 1.13 1.12 1.11 1.13 1.18 1.27 1.26 1.20 1.18 1.20 1.22 1.23 1.25 1.26 1.26 1.19 1.21 1.21 1.17 1.18 1.20 1.22 1.19 1.19 1.23 1.25 1.24 1.22 1.19 1.18 1.18 1.15 1.13 1.14 1.19 1.22 1.22 1.21 1.22 1.30 1.34 1.41 1.45 1.48 1.48 1.46 1.51 1.52 1.55
0.22 0.17 0.19 0.24 0.24 0.25 0.25 0.24 0.24 0.25 0.26 0.30 0.33 0.36 0.38 0.40 0.47 0.56 0.61 0.64 0.68 0.64 0.58 0.63 0.58 0.59 0.61 0.63 0.63 0.64 0.76 0.78 0.78 0.76 0.80 0.89 0.99 1.07 1.12 1.14 1.17 1.18 1.18 1.20 1.16 1.16 1.15 1.17 1.20 1.23 1.23 1.24 1.23 1.23 1.20 1.19 1.18 1.17 1.17 1.19 1.21 1.21 1.21 1.22 1.23 1.22 1.15 1.19 1.22 1.20 1.19 1.20 1.22 1.30 1.30 1.27 1.32 1.36 1.37 1.46 1.49 1.47 1.47 1.50 1.52 1.57
0.18 0.19 0.21 0.25 0.26 0.23 0.23 0.25 0.23 0.22 0.24 0.24 0.26 0.29 0.31 0.40 0.41 0.43 0.55 0.62 0.64 0.61 0.56 0.59 0.53 0.52 0.56 0.60 0.61 0.63 0.73 0.78 0.77 0.78 0.80 0.88 0.96 1.01 1.07 1.13 1.15 1.17 1.16 1.15 1.16 1.14 1.15 1.15 1.18 1.20 1.18 1.21 1.23 1.22 1.20 1.19 1.16 1.17 1.14 1.16 1.20 1.20 1.20 1.20 1.24 1.21 1.22 1.23 1.26 1.27 1.28 1.28 1.25 1.27 1.32 1.31 1.33 1.34 1.33 1.38 1.48 1.46 1.45 1.48 1.50 1.57
0.17 0.22 0.25 0.24 0.25 0.24 0.23 0.22 0.19 0.17 0.16 0.19 0.22 0.24 0.27 0.33 0.39 0.45 0.50 0.53 0.55 0.58 0.57 0.54 0.50 0.49 0.54 0.54 0.57 0.63 0.69 0.74 0.75 0.77 0.79 0.86 0.94 1.04 1.15 1.17 1.18 1.15 1.16 1.15 1.18 1.19 1.16 1.13 1.13 1.14 1.17 1.22 1.19 1.18 1.16 1.16 1.17 1.17 1.14 1.15 1.18 1.20 1.20 1.22 1.23 1.21 1.25 1.26 1.24 1.25 1.27 1.32 1.27 1.33 1.34 1.26 1.21 1.26 1.28 1.31 1.39 1.44 1.46 1.47 1.47 1.58
0.24 0.28 0.31 0.24 0.23 0.25 0.23 0.19 0.18 0.16 0.13 0.14 0.18 0.20 0.24 0.29 0.32 0.38 0.45 0.46 0.49 0.50 0.56 0.53 0.42 0.40 0.50 0.54 0.56 0.60 0.74 0.70 0.75 0.75 0.76 0.80 0.86 0.97 1.02 1.08 1.16 1.20 1.24 1.19 1.16 1.17 1.19 1.17 1.18 1.20 1.19 1.16 1.16 1.15 1.18 1.19 1.18 1.17 1.17 1.18 1.20 1.21 1.25 1.24 1.25 1.26 1.25 1.20 1.14 1.12 1.08 1.05 1.06 1.02 1.07 1.05 1.06 1.13 1.17 1.16 1.30 1.44 1.46 1.46 1.47 1.54
0.25 0.32 0.31 0.25 0.23 0.24 0.21 0.16 0.18 0.18 0.13 0.12 0.13 0.18 0.21 0.25 0.28 0.31 0.36 0.39 0.37 0.39 0.48 0.56 0.41 0.34 0.48 0.51 0.55 0.62 0.73 0.69 0.74 0.73 0.78 0.81 0.84 0.91 0.97 1.03 1.08 1.13 1.20 1.25 1.23 1.22 1.21 1.19 1.14 1.15 1.14 1.13 1.11 1.14 1.22 1.23 1.20 1.19 1.19 1.18 1.19 1.20 1.24 1.29 1.29 1.30 1.24 1.17 1.15 1.10 1.03 1.01 1.00 0.97 1.03 1.13 1.19 1.20 1.27 1.28 1.24 1.33 1.43 1.43 1.42 1.49
0.30 0.31 0.32 0.29 0.26 0.22 0.19 0.16 0.19 0.21 0.15 0.12 0.17 0.20 0.20 0.20 0.22 0.26 0.32 0.34 0.34 0.42 0.48 0.50 0.48 0.38 0.37 0.44 0.57 0.63 0.65 0.69 0.67 0.70 0.73 0.79 0.82 0.85 0.90 0.95 1.01 1.08 1.16 1.20 1.18 1.19 1.19 1.20 1.13 1.06 1.09 1.10 1.10 1.17 1.21 1.20 1.22 1.19 1.18 1.19 1.19 1.22 1.24 1.29 1.31 1.29 1.25 1.13 1.11 1.08 1.04 1.04 1.03 1.02 1.05 1.13 1.16 1.24 1.32 1.30 1.26 1.30 1.36 1.42 1.40 1.41
0.30 0.27 0.29 0.26 0.24 0.21 0.17 0.17 0.20 0.22 0.16 0.14 0.18 0.22 0.23 0.20 0.19 0.21 0.25 0.26 0.30 0.34 0.34 0.42 0.47 0.39 0.32 0.39 0.53 0.56 0.54 0.61 0.63 0.66 0.71 0.72 0.80 0.83 0.86 0.88 0.93 1.00 1.09 1.17 1.17 1.15 1.14 1.15 1.16 1.15 1.09 1.11 1.17 1.18 1.15 1.16 1.18 1.21 1.23 1.22 1.23 1.22 1.24 1.27 1.29 1.26 1.25 1.17 1.13 1.09 1.06 1.01 1.04 1.09 1.12 1.20 1.22 1.21 1.27 1.27 1.30 1.28 1.32 1.36 1.39 1.38
0.31 0.29 0.31 0.30 0.24 0.18 0.21 0.23 0.22 0.23 0.18 0.18 0.23 0.29 0.24 0.22 0.20 0.19 0.19 0.21 0.25 0.27 0.23 0.31 0.39 0.32 0.29 0.38 0.42 0.49 0.51 0.52 0.56 0.63 0.69 0.75 0.73 0.79 0.81 0.84 0.89 1.00 1.08 1.14 1.17 1.17 1.16 1.18 1.23 1.24 1.22 1.17 1.14 1.17 1.19 1.20 1.23 1.24 1.25 1.23 1.22 1.21 1.24 1.27 1.28 1.28 1.26 1.20 1.17 1.10 1.06 1.02 1.03 1.08 1.13 1.18 1.17 1.15 1.22 1.17 1.22 1.25 1.26 1.28 1.34 1.37
0.30 0.35 0.37 0.34 0.26 0.22 0.25 0.27 0.26 0.25 0.23 0.24 0.24 0.23 0.21 0.19 0.18 0.17 0.18 0.19 0.21 0.18 0.19 0.27 0.34 0.33 0.23 0.30 0.34 0.38 0.43 0.50 0.51 0.55 0.63 0.78 0.78 0.77 0.77 0.80 0.84 0.93 1.04 1.09 1.14 1.18 1.17 1.21 1.25 1.28 1.21 1.17 1.16 1.17 1.19 1.19 1.19 1.20 1.20 1.19 1.17 1.19 1.25 1.31 1.29 1.30 1.24 1.25 1.20 1.13 1.10 1.07 1.06 1.09 1.11 1.10 1.13 1.16 1.15 1.10 1.13 1.17 1.21 1.26 1.27 1.33
0.29 0.31 0.30 0.33 0.33 0.29 0.28 0.27 0.29 0.30 0.29 0.25 0.24 0.21 0.17 0.17 0.19 0.19 0.18 0.19 0.13 0.11 0.19 0.25 0.27 0.28 0.20 0.19 0.32 0.36 0.43 0.51 0.53 0.50 0.53 0.71 0.77 0.75 0.77 0.79 0.83 0.88 0.97 1.06 1.12 1.16 1.20 1.20 1.22 1.24 1.19 1.18 1.15 1.14 1.13 1.15 1.17 1.18 1.19 1.17 1.14 1.17 1.21 1.25 1.29 1.31 1.24 1.27 1.26 1.19 1.16 1.13 1.14 1.15 1.10 1.06 1.06 1.12 1.10 1.11 1.11 1.18 1.21 1.21 1.24 1.27
0.23 0.25 0.29 0.31 0.34 0.30 0.27 0.24 0.27 0.28 0.27 0.24 0.23 0.20 0.15 0.16 0.16 0.13 0.16 0.11 0.11 0.10 0.16 0.18 0.20 0.20 0.17 0.19 0.30 0.32 0.34 0.41 0.51 0.52 0.53 0.60 0.73 0.79 0.77 0.74 0.78 0.84 0.92 1.02 1.06 1.12 1.16 1.15 1.14 1.14 1.14 1.16 1.13 1.06 1.06 1.08 1.12 1.14 1.15 1.15 1.12 1.12 1.18 1.19 1.23 1.25 1.21 1.23 1.22 1.21 1.16 1.17 1.22 1.19 1.14 1.10 1.08 1.14 1.13 1.14 1.13 1.14 1.13 1.19 1.16 1.19
0.20 0.24 0.29 0.28 0.29 0.30 0.27 0.20 0.23 0.23 0.23 0.22 0.19 0.18 0.15 0.14 0.14 0.10 0.11 0.13 0.14 0.15 0.17 0.20 0.22 0.16 0.18 0.23 0.28 0.27 0.33 0.39 0.46 0.53 0.54 0.55 0.59 0.74 0.81 0.77 0.77 0.81 0.88 0.97 1.04 1.08 1.12 1.15 1.15 1.15 1.16 1.13 1.09 1.04 1.01 1.03 1.05 1.08 1.07 1.07 1.04 1.06 1.13 1.15 1.18 1.21 1.17 1.18 1.20 1.24 1.21 1.21 1.24 1.21 1.19 1.15 1.11 1.14 1.15 1.16 1.14 1.14 1.15 1.15 1.13 1.15
0.18 0.17 0.21 0.25 0.22 0.29 0.24 0.23 0.24 0.24 0.23 0.22 0.22 0.19 0.17 0.16 0.16 0.12 0.12 0.11 0.11 0.14 0.18 0.19 0.15 0.11 0.12 0.15 0.23 0.25 0.30 0.35 0.41 0.45 0.49 0.54 0.57 0.63 0.80 0.76 0.73 0.78 0.83 0.91 0.98 1.03 1.08 1.14 1.16 1.15 1.16 1.16 1.12 1.06 1.01 1.00 1.01 1.04 1.03 1.03 1.01 1.03 1.09 1.11 1.14 1.16 1.12 1.15 1.19 1.22 1.24 1.24 1.25 1.23 1.21 1.19 1.17 1.17 1.16 1.16 1.16 1.16 1.19 1.17 1.18 1.16
0.20 0.19 0.23 0.28 0.28 0.28 0.22 0.24 0.27 0.27 0.25 0.24 0.22 0.21 0.19 0.16 0.20 0.15 0.16 0.13 0.13 0.13 0.12 0.16 0.13 0.14 0.13 0.22 0.27 0.30 0.30 0.31 0.34 0.39 0.44 0.49 0.54 0.56 0.68 0.75 0.73 0.75 0.80 0.87 0.92 0.99 1.05 1.13 1.18 1.18 1.18 1.18 1.16 1.13 1.07 0.98 0.98 0.98 0.97 0.98 0.97 0.97 1.03 1.07 1.10 1.09 1.10 1.13 1.17 1.20 1.19 1.22 1.24 1.24 1.24 1.26 1.20 1.19 1.20 1.20 1.18 1.17 1.18 1.18 1.21 1.23
0.24 0.20 0.27 0.29 0.29 0.28 0.26 0.25 0.25 0.29 0.17 0.22 0.22 0.17 0.17 0.22 0.19 0.15 0.17 0.19 0.19 0.16 0.13 0.17 0.15 0.14 0.17 0.20 0.24 0.25 0.25 0.27 0.32 0.37 0.43 0.47 0.53 0.57 0.66 0.75 0.73 0.73 0.78 0.84 0.89 0.94 1.01 1.10 1.16 1.16 1.17 1.19 1.20 1.17 1.09 1.03 0.97 0.93 0.94 0.94 0.95 0.98 1.03 1.04 1.04 1.03 1.06 1.12 1.15 1.14 1.19 1.22 1.23 1.23 1.19 1.20 1.15 1.16 1.23 1.24 1.23 1.21 1.21 1.22 1.21 1.22
0.24 0.23 0.29 0.28 0.25 0.28 0.30 0.27 0.26 0.28 0.27 0.26 0.18 0.19 0.24 0.25 0.22 0.17 0.12 0.16 0.12 0.09 0.09 0.11 0.11 0.14 0.13 0.11 0.16 0.18 0.20 0.25 0.28 0.32 0.38 0.45 0.52 0.58 0.67 0.73 0.73 0.73 0.76 0.81 0.86 0.93 0.99 1.03 1.10 1.15 1.18 1.18 1.18 1.17 1.16 1.12 1.10 1.02 0.96 0.92 0.90 0.93 0.95 0.98 1.01 1.02 1.05 1.08 1.09 1.11 1.15 1.19 1.24 1.23 1.22 1.25 1.21 1.22 1.23 1.23 1.24 1.24 1.23 1.19 1.20 1.22
0.33 0.25 0.28 0.30 0.28 0.29 0.32 0.29 0.26 0.29 0.28 0.25 0.23 0.27 0.19 0.16 0.14 0.19 0.17 0.11 0.11 0.10 0.08 0.09 0.10 0.11 0.13 0.14 0.22 0.20 0.19 0.21 0.27 0.32 0.34 0.39 0.45 0.52 0.62 0.68 0.71 0.74 0.77 0.82 0.88 0.92 0.93 0.94 0.96 1.03 1.07 1.12 1.16 1.20 1.22 1.22 1.20 1.15 1.05 0.98 0.93 0.88 0.89 0.93 0.99 1.04 1.08 1.09 1.08 1.09 1.10 1.14 1.21 1.23 1.25 1.29 1.28 1.29 1.25 1.22 1.24 1.21 1.21 1.24 1.24 1.22
0.35 0.26 0.28 0.32 0.28 0.30 0.29 0.27 0.20 0.23 0.28 0.28 0.32 0.27 0.26 0.23 0.18 0.15 0.15 0.14 0.14 0.12 0.12 0.10 0.10 0.10 0.16 0.15 0.17 0.21 0.23 0.21 0.23 0.27 0.31 0.34 0.41 0.49 0.56 0.64 0.68 0.72 0.75 0.79 0.83 0.86 0.87 0.88 0.90 0.94 1.00 1.09 1.13 1.18 1.24 1.26 1.26 1.21 1.15 1.09 1.03 1.02 1.01 1.01 1.02 1.04 1.02 1.05 1.06 1.08 1.14 1.19 1.20 1.22 1.26 1.30 1.29 1.27 1.26 1.26 1.26 1.25 1.23 1.21 1.25 1.23
0.33 0.33 0.26 0.30 0.32 0.31 0.23 0.24 0.21 0.24 0.22 0.23 0.25 0.24 0.25 0.23 0.28 0.23 0.21 0.14 0.13 0.12 0.12 0.12 0.11 0.15 0.19 0.20 0.16 0.15 0.19 0.22 0.21 0.23 0.28 0.31 0.36 0.44 0.53 0.59 0.67 0.71 0.72 0.75 0.80 0.83 0.87 0.89 0.93 0.97 1.03 1.09 1.20 1.27 1.28 1.29 1.26 1.26 1.28 1.21 1.14 1.09 1.08 1.05 1.04 1.05 1.02 1.05 1.06 1.07 1.09 1.13 1.18 1.21 1.28 1.30 1.30 1.27 1.28 1.29 1.30 1.29 1.29 1.31 1.26 1.25
0.34 0.32 0.26 0.29 0.28 0.26 0.24 0.28 0.27 0.29 0.27 0.25 0.23 0.22 0.24 0.21 0.20 0.18 0.18 0.23 0.17 0.14 0.13 0.12 0.11 0.17 0.17 0.19 0.17 0.17 0.17 0.18 0.22 0.22 0.27 0.31 0.34 0.39 0.47 0.55 0.63 0.72 0.74 0.74 0.77 0.82 0.87 0.93 0.97 1.01 1.05 1.10 1.14 1.20 1.21 1.25 1.27 1.27 1.28 1.29 1.24 1.20 1.18 1.15 1.15 1.13 1.11 1.12 1.11 1.09 1.11 1.15 1.22 1.26 1.29 1.29 1.31 1.29 1.31 1.31 1.31 1.32 1.33 1.29 1.29 1.27
0.44 0.40 0.31 0.27 0.28 0.28 0.29 0.33 0.33 0.33 0.32 0.29 0.26 0.23 0.26 0.24 0.22 0.20 0.15 0.19 0.19 0.16 0.18 0.15 0.14 0.16 0.22 0.20 0.20 0.19 0.17 0.17 0.19 0.21 0.23 0.29 0.36 0.39 0.45 0.56 0.69 0.71 0.73 0.77 0.81 0.86 0.92 0.94 0.96 0.98 0.98 0.98 1.00 1.07 1.17 1.23 1.24 1.26 1.28 1.31 1.34 1.29 1.23 1.24 1.26 1.27 1.25 1.20 1.17 1.16 1.18 1.18 1.21 1.23 1.24 1.23 1.26 1.26 1.28 1.30 1.31 1.33 1.30 1.29 1.30 1.30
0.48 0.37 0.31 0.30 0.34 0.33 0.32 0.35 0.35 0.34 0.32 0.29 0.28 0.27 0.26 0.22 0.22 0.20 0.18 0.22 0.19 0.17 0.13 0.14 0.12 0.16 0.25 0.27 0.22 0.18 0.18 0.17 0.18 0.19 0.21 0.24 0.29 0.35 0.43 0.50 0.58 0.68 0.70 0.70 0.74 0.79 0.86 0.90 0.96 0.98 0.94 0.92 0.95 0.99 1.05 1.13 1.19 1.24 1.28 1.30 1.33 1.33 1.33 1.31 1.34 1.38 1.38 1.35 1.31 1.32 1.32 1.29 1.25 1.22 1.21 1.20 1.23 1.24 1.27 1.30 1.30 1.31 1.28 1.28 1.29 1.28
0.35 0.36 0.35 0.28 0.30 0.29 0.28 0.30 0.30 0.32 0.31 0.28 0.27 0.27 0.26 0.26 0.25 0.23 0.22 0.21 0.18 0.19 0.17 0.14 0.11 0.15 0.24 0.27 0.27 0.25 0.21 0.22 0.21 0.21 0.23 0.25 0.27 0.30 0.36 0.50 0.54 0.60 0.65 0.69 0.69 0.71 0.74 0.78 0.82 0.86 0.89 0.91 0.92 0.94 1.00 1.07 1.14 1.21 1.24 1.28 1.30 1.33 1.37 1.39 1.39 1.40 1.40 1.40 1.39 1.41 1.40 1.38 1.37 1.34 1.32 1.28 1.27 1.26 1.27 1.28 1.29 1.31 1.28 1.28 1.26 1.29
0.40 0.38 0.35 0.28 0.23 0.21 0.19 0.18 0.19 0.22 0.24 0.28 0.30 0.29 0.27 0.26 0.25 0.22 0.18 0.19 0.17 0.22 0.21 0.16 0.16 0.22 0.29 0.28 0.23 0.24 0.19 0.21 0.21 0.23 0.24 0.25 0.26 0.27 0.32 0.42 0.47 0.48 0.53 0.60 0.67 0.69 0.70 0.73 0.79 0.84 0.88 0.93 0.96 0.98 0.98 1.03 1.10 1.16 1.24 1.28 1.31 1.34 1.39 1.42 1.43 1.40 1.39 1.41 1.41 1.41 1.40 1.41 1.42 1.40 1.38 1.36 1.35 1.34 1.33 1.32 1.32 1.32 1.32 1.29 1.26 1.28
0.44 0.48 0.43 0.37 0.34 0.29 0.31 0.35 0.38 0.34 0.27 0.23 0.25 0.27 0.28 0.27 0.27 0.25 0.23 0.20 0.20 0.22 0.19 0.20 0.22 0.24 0.25 0.25 0.24 0.24 0.24 0.22 0.23 0.24 0.24 0.25 0.26 0.36 0.37 0.35 0.38 0.44 0.46 0.51 0.57 0.63 0.67 0.68 0.70 0.77 0.81 0.87 0.94 1.01 1.04 1.05 1.10 1.17 1.23 1.28 1.34 1.37 1.40 1.44 1.45 1.44 1.40 1.40 1.39 1.39 1.37 1.37 1.38 1.40 1.42 1.43 1.42 1.43 1.41 1.38 1.37 1.36 1.35 1.34 1.30 1.26
0.44 0.40 0.42 0.43 0.43 0.44 0.41 0.39 0.38 0.35 0.29 0.26 0.24 0.24 0.27 0.27 0.27 0.24 0.21 0.19 0.26 0.23 0.16 0.21 0.26 0.23 0.27 0.27 0.26 0.26 0.25 0.24 0.24 0.23 0.24 0.26 0.41 0.29 0.28 0.34 0.36 0.42 0.48 0.49 0.52 0.52 0.52 0.54 0.59 0.66 0.75 0.81 0.88 0.98 1.05 1.09 1.10 1.13 1.20 1.24 1.32 1.37 1.41 1.45 1.46 1.44 1.41 1.40 1.39 1.38 1.37 1.37 1.40 1.41 1.42 1.45 1.47 1.46 1.45 1.44 1.43 1.44 1.46 1.46 1.41 1.36
0.42 0.37 0.41 0.39 0.37 0.39 0.42 0.39 0.39 0.36 0.35 0.34 0.30 0.27 0.25 0.26 0.26 0.24 0.24 0.25 0.26 0.22 0.20 0.25 0.25 0.24 0.26 0.29 0.31 0.30 0.29 0.28 0.27 0.28 0.31 0.35 0.30 0.29 0.36 0.30 0.29 0.41 0.40 0.40 0.43 0.48 0.49 0.52 0.56 0.61 0.69 0.76 0.81 0.89 0.99 1.04 1.08 1.13 1.17 1.22 1.30 1.35 1.38 1.44 1.45 1.44 1.41 1.40 1.38 1.37 1.40 1.43 1.44 1.45 1.46 1.45 1.45 1.44 1.44 1.47 1.50 1.52 1.53 1.53 1.51 1.49
0.42 0.40 0.42 0.38 0.35 0.36 0.38 0.39 0.40 0.37 0.35 0.33 0.32 0.32 0.31 0.29 0.27 0.27 0.26 0.27 0.25 0.25 0.28 0.28 0.30 0.27 0.29 0.28 0.29 0.27 0.28 0.28 0.28 0.29 0.29 0.28 0.27 0.28 0.32 0.31 0.29 0.33 0.34 0.43 0.47 0.46 0.48 0.50 0.55 0.60 0.65 0.71 0.74 0.80 0.89 0.97 1.02 1.06 1.09 1.16 1.26 1.31 1.36 1.42 1.43 1.43 1.41 1.39 1.38 1.41 1.45 1.47 1.45 1.44 1.46 1.44 1.42 1.41 1.44 1.46 1.49 1.52 1.53 1.54 1.55 1.55
0.40 0.39 0.41 0.37 0.34 0.34 0.36 0.37 0.38 0.38 0.36 0.33 0.33 0.32 0.32 0.31 0.31 0.31 0.31 0.29 0.29 0.27 0.27 0.29 0.27 0.26 0.31 0.35 0.33 0.31 0.30 0.30 0.29 0.29 0.30 0.29 0.28 0.27 0.27 0.29 0.31 0.31 0.33 0.45 0.58 0.49 0.47 0.49 0.51 0.55 0.58 0.60 0.69 0.75 0.82 0.92 0.97 1.01 1.05 1.10 1.18 1.27 1.34 1.40 1.41 1.42 1.41 1.36 1.39 1.45 1.48 1.48 1.46 1.46 1.43 1.43 1.44 1.45 1.45 1.46 1.49 1.51 1.52 1.55 1.57 1.58
0.39 0.35 0.39 0.37 0.32 0.32 0.35 0.35 0.35 0.36 0.35 0.33 0.33 0.33 0.32 0.30 0.27 0.29 0.27 0.29 0.28 0.26 0.28 0.28 0.26 0.26 0.31 0.34 0.38 0.36 0.34 0.31 0.27 0.27 0.27 0.28 0.27 0.28 0.28 0.30 0.32 0.32 0.36 0.37 0.39 0.44 0.44 0.46 0.49 0.50 0.54 0.58 0.63 0.69 0.76 0.83 0.92 0.95 0.95 1.03 1.10 1.21 1.30 1.33 1.37 1.38 1.39 1.37 1.42 1.46 1.47 1.47 1.47 1.46 1.44 1.45 1.44 1.45 1.48 1.50 1.51 1.51 1.53 1.55 1.56 1.60
0.38 0.35 0.34 0.34 0.30 0.31 0.35 0.35 0.34 0.34 0.32 0.29 0.29 0.32 0.33 0.34 0.33 0.33 0.33 0.33 0.31 0.30 0.26 0.24 0.24 0.30 0.33 0.33 0.31 0.33 0.32 0.29 0.27 0.27 0.28 0.28 0.29 0.30 0.30 0.30 0.32 0.32 0.31 0.31 0.33 0.45 0.42 0.43 0.50 0.53 0.53 0.60 0.63 0.64 0.68 0.77 0.85 0.90 0.95 1.00 1.10 1.26 1.31 1.30 1.32 1.36 1.38 1.41 1.42 1.42 1.46 1.48 1.46 1.45 1.45 1.44 1.46 1.50 1.52 1.51 1.51 1.51 1.52 1.53 1.60 1.63
0.38 0.35 0.33 0.37 0.30 0.32 0.34 0.33 0.34 0.30 0.23 0.24 0.39 0.39 0.36 0.33 0.34 0.31 0.32 0.33 0.34 0.33 0.29 0.31 0.32 0.36 0.36 0.35 0.35 0.34 0.32 0.30 0.30 0.31 0.32 0.31 0.31 0.32 0.34 0.35 0.35 0.35 0.34 0.34 0.38 0.45 0.44 0.44 0.45 0.50 0.58 0.60 0.62 0.66 0.69 0.73 0.76 0.86 0.97 1.04 1.14 1.21 1.26 1.28 1.30 1.36 1.40 1.41 1.41 1.43 1.45 1.45 1.44 1.43 1.44 1.49 1.51 1.52 1.52 1.52 1.49 1.53 1.58 1.60 1.63 1.61
0.36 0.37 0.35 0.36 0.31 0.31 0.33 0.32 0.27 0.22 0.24 0.42 0.48 0.52 0.48 0.42 0.42 0.39 0.38 0.37 0.37 0.37 0.35 0.33 0.34 0.35 0.37 0.39 0.39 0.39 0.39 0.37 0.36 0.35 0.34 0.36 0.45 0.46 0.37 0.34 0.33 0.34 0.36 0.38 0.38 0.40 0.46 0.50 0.50 0.52 0.52 0.55 0.60 0.64 0.67 0.69 0.76 0.87 0.97 1.01 1.02 1.10 1.18 1.24 1.27 1.29 1.36 1.36 1.36 1.39 1.40 1.40 1.42 1.44 1.49 1.52 1.52 1.53 1.53 1.53 1.55 1.57 1.59 1.60 1.59 1.60
0.34 0.33 0.33 0.33 0.34 0.33 0.30 0.29 0.21 0.22 0.37 0.40 0.48 0.52 0.56 0.52 0.49 0.42 0.37 0.41 0.41 0.39 0.41 0.43 0.41 0.38 0.37 0.36 0.37 0.37 0.37 0.38 0.45 0.48 0.46 0.40 0.39 0.40 0.35 0.34 0.35 0.37 0.39 0.46 0.53 0.58 0.58 0.57 0.56 0.55 0.57 0.61 0.58 0.60 0.65 0.69 0.75 0.81 0.89 1.01 1.01 1.06 1.12 1.16 1.20 1.22 1.27 1.28 1.28 1.29 1.33 1.36 1.39 1.42 1.45 1.49 1.51 1.50 1.50 1.52 1.53 1.52 1.58 1.60 1.61 1.65
0.34 0.35 0.33 0.29 0.34 0.27 0.28 0.27 0.26 0.35 0.34 0.36 0.42 0.47 0.51 0.50 0.48 0.39 0.31 0.34 0.44 0.60 0.50 0.46 0.47 0.43 0.41 0.46 0.49 0.45 0.47 0.44 0.37 0.36 0.37 0.37 0.39 0.40 0.38 0.37 0.40 0.50 0.56 0.56 0.55 0.57 0.63 0.65 0.62 0.62 0.64 0.60 0.59 0.60 0.62 0.70 0.75 0.78 0.88 0.95 0.99 1.04 1.09 1.13 1.14 1.18 1.21 1.22 1.26 1.29 1.34 1.37 1.38 1.39 1.42 1.46 1.46 1.45 1.46 1.47 1.50 1.55 1.61 1.57 1.58 1.60
0.35 0.31 0.33 0.29 0.29 0.32 0.28 0.25 0.26 0.25 0.22 0.28 0.41 0.60 0.63 0.63 0.58 0.55 0.41 0.48 0.71 0.69 0.57 0.51 0.44 0.48 0.47 0.51 0.53 0.58 0.51 0.38 0.32 0.33 0.37 0.36 0.38 0.45 0.50 0.50 0.56 0.57 0.57 0.59 0.64 0.64 0.65 0.67 0.68 0.69 0.66 0.64 0.62 0.61 0.65 0.70 0.75 0.79 0.85 0.93 1.00 1.05 1.09 1.10 1.11 1.15 1.19 1.22 1.28 1.33 1.36 1.38 1.38 1.38 1.40 1.42 1.40 1.40 1.43 1.48 1.54 1.57 1.62 1.57 1.57 1.57
0.34 0.33 0.36 0.33 0.27 0.28 0.28 0.24 0.23 0.22 0.26 0.43 0.56 0.57 0.61 0.60 0.55 0.73 0.41 0.33 0.71 0.69 0.63 0.59 0.54 0.57 0.56 0.55 0.59 0.59 0.44 0.33 0.31 0.36 0.74 0.71 0.67 0.69 0.65 0.67 0.66 0.66 0.69 0.69 0.68 0.67 0.71 0.75 0.74 0.72 0.73 0.71 0.63 0.64 0.68 0.71 0.75 0.79 0.82 0.90 0.97 1.05 1.08 1.07 1.08 1.13 1.16 1.23 1.31 1.38 1.40 1.41 1.43 1.43 1.43 1.41 1.40 1.42 1.44 1.49 1.53 1.61 1.68 1.64 1.63 1.62
0.29 0.31 0.30 0.28 0.28 0.27 0.26 0.24 0.23 0.27 0.27 0.45 0.59 0.65 0.64 0.63 0.58 0.56 0.29 0.32 0.70 0.76 0.67 0.67 0.59 0.61 0.62 0.63 0.64 0.57 0.49 0.37 0.37 0.66 0.80 0.84 0.75 0.77 0.68 0.68 0.69 0.70 0.73 0.77 0.82 0.83 0.80 0.80 0.76 0.72 0.67 0.66 0.66 0.69 0.70 0.71 0.74 0.78 0.84 0.89 0.95 0.98 1.02 1.06 1.11 1.21 1.28 1.31 1.35 1.39 1.36 1.35 1.36 1.39 1.40 1.40 1.44 1.49 1.52 1.60 1.64 1.64 1.61 1.63 1.64 1.64
0.26 0.29 0.29 0.25 0.26 0.27 0.27 0.26 0.28 0.29 0.34 0.45 0.59 0.68 0.65 0.59 0.54 0.35 0.26 0.61 0.73 0.78 0.77 0.75 0.70 0.67 0.66 0.63 0.64 0.54 0.65 0.67 0.68 0.72 0.83 0.81 0.76 0.77 0.77 0.76 0.78 0.79 0.78 0.81 0.82 0.82 0.85 0.86 0.85 0.81 0.78 0.80 0.77 0.77 0.75 0.73 0.75 0.79 0.87 0.92 0.90 0.90 1.02 1.14 1.20 1.26 1.28 1.29 1.31 1.33 1.31 1.33 1.35 1.35 1.39 1.45 1.49 1.54 1.57 1.57 1.52 1.53 1.53 1.53 1.60 1.61
0.29 0.29 0.29 0.28 0.26 0.25 0.26 0.24 0.25 0.29 0.37 0.42 0.42 0.45 0.58 0.43 0.32 0.30 0.64 0.81 0.82 0.74 0.84 0.79 0.78 0.77 0.74 0.70 0.68 0.69 0.72 0.77 0.79 0.79 0.77 0.80 0.80 0.80 0.77 0.79 0.82 0.88 0.91 0.90 0.90 0.89 0.89 0.90 0.87 0.87 0.85 0.82 0.82 0.78 0.79 0.78 0.79 0.85 0.90 0.93 0.91 0.93 1.04 1.15 1.23 1.29 1.27 1.23 1.24 1.30 1.32 1.35 1.41 1.45 1.46 1.52 1.54 1.52 1.51 1.56 1.59 1.59 1.58 1.59 1.60 1.57
0.33 0.29 0.25 0.24 0.26 0.27 0.26 0.24 0.23 0.21 0.35 0.49 0.59 0.48 0.53 0.34 0.35 0.67 0.72 0.87 0.80 0.78 0.71 0.76 0.77 0.82 0.81 0.76 0.79 0.78 0.78 0.78 0.78 0.78 0.81 0.83 0.83 0.83 0.82 0.81 0.81 0.83 0.85 0.86 0.89 0.93 0.92 0.91 0.89 0.88 0.89 0.91 0.92 0.90 0.88 0.83 0.84 0.91 0.96 0.95 0.97 1.02 1.03 1.10 1.23 1.26 1.25 1.24 1.23 1.26 1.32 1.38 1.40 1.43 1.48 1.48 1.49 1.48 1.47 1.53 1.53 1.54 1.59 1.60 1.61 1.59
0.40 0.32 0.31 0.30 0.31 0.23 0.23 0.22 0.23 0.32 0.54 0.59 0.55 0.43 0.62 0.63 0.73 0.69 0.68 0.63 0.83 0.75 0.71 0.72 0.78 0.80 0.80 0.75 0.75 0.78 0.81 0.81 0.81 0.82 0.83 0.85 0.88 0.91 0.91 0.90 0.89 0.90 0.91 0.95 0.95 0.95 0.97 0.95 0.93 0.93 0.96 0.96 0.97 0.99 0.99 0.93 0.92 0.97 0.97 1.01 1.19 1.18 1.18 1.22 1.23 1.24 1.21 1.21 1.22 1.26 1.31 1.36 1.40 1.44 1.44 1.45 1.46 1.45 1.43 1.43 1.46 1.51 1.53 1.54 1.52 1.52
0.39 0.37 0.41 0.37 0.47 0.35 0.28 0.28 0.39 0.54 0.53 0.59 0.60 0.66 0.75 0.82 0.83 0.84 0.78 0.74 0.71 0.76 0.76 0.72 0.76 0.82 0.83 0.83 0.81 0.79 0.77 0.82 0.82 0.86 0.83 0.87 0.90 0.92 0.92 0.92 0.92 0.91 0.94 0.96 0.98 1.01 1.00 0.96 0.94 0.95 0.96 0.98 0.98 1.01 1.03 1.08 1.04 1.06 1.05 1.12 1.21 1.17 1.19 1.23 1.25 1.25 1.23 1.25 1.27 1.28 1.32 1.36 1.38 1.42 1.44 1.45 1.46 1.42 1.41 1.40 1.43 1.42 1.46 1.48 1.46 1.46
0.50 0.48 0.50 0.44 0.42 0.51 0.47 0.44 0.45 0.47 0.45 0.51 0.61 0.66 0.69 0.78 0.88 0.91 0.87 0.79 0.81 0.81 0.82 0.76 0.79 0.81 0.85 0.90 0.83 0.81 0.81 0.82 0.84 0.88 0.91 0.93 0.93 0.95 0.99 0.99 0.99 1.00 1.01 1.05 1.06 1.07 1.03 1.03 1.01 0.99 0.96 0.97 1.02 1.01 1.04 1.05 1.06 1.00 1.06 1.16 1.18 1.21 1.19 1.19 1.20 1.22 1.23 1.28 1.32 1.34 1.35 1.35 1.36 1.40 1.44 1.45 1.47 1.45 1.43 1.40 1.41 1.40 1.42 1.45 1.45 1.45
0.40 0.46 0.45 0.36 0.42 0.38 0.31 0.43 0.41 0.41 0.43 0.50 0.54 0.60 0.67 0.80 0.87 0.92 0.93 0.92 0.90 0.88 0.87 0.89 0.87 0.88 0.88 0.90 0.87 0.84 0.85 0.90 0.89 0.92 0.95 0.97 0.97 0.98 1.00 1.01 1.02 1.02 1.02 1.03 1.10 1.11 1.07 1.04 1.00 0.98 0.98 0.96 1.04 1.07 1.08 1.10 1.10 1.12 1.15 1.18 1.23 1.25 1.24 1.18 1.17 1.18 1.21 1.25 1.30 1.36 1.37 1.36 1.38 1.40 1.44 1.45 1.45 1.47 1.49 1.48 1.47 1.46 1.46 1.45 1.46 1.44
0.34 0.50 0.38 0.40 0.39 0.34 0.34 0.41 0.45 0.48 0.47 0.44 0.47 0.55 0.60 0.75 0.82 0.89 0.94 0.97 0.96 0.96 0.95 0.95 0.96 0.94 0.97 0.91 0.92 0.89 0.88 0.92 0.91 0.93 0.97 1.00 1.01 1.03 1.04 1.07 1.07 1.06 1.09 1.13 1.14 1.14 1.09 1.06 1.02 1.01 0.99 0.99 1.05 1.10 1.11 1.12 1.15 1.19 1.22 1.23 1.28 1.29 1.25 1.17 1.13 1.15 1.18 1.24 1.30 1.34 1.37 1.36 1.38 1.37 1.40 1.45 1.48 1.47 1.49 1.53 1.55 1.52 1.51 1.51 1.54 1.51
0.39 0.45 0.32 0.39 0.35 0.37 0.41 0.42 0.41 0.42 0.42 0.39 0.41 0.52 0.61 0.75 0.83 0.84 0.92 0.98 1.00 0.97 0.99 1.05 1.04 0.99 1.00 1.00 1.00 0.96 0.91 0.94 0.97 0.99 1.00 1.03 1.05 1.06 1.09 1.11 1.13 1.12 1.14 1.13 1.14 1.13 1.08 1.06 1.04 1.03 1.02 1.02 1.08 1.09 1.09 1.10 1.14 1.20 1.23 1.28 1.32 1.35 1.28 1.21 1.17 1.18 1.19 1.23 1.27 1.29 1.34 1.35 1.36 1.36 1.39 1.45 1.52 1.56 1.57 1.55 1.57 1.57 1.60 1.72 1.79 1.75
0.38 0.32 0.38 0.37 0.31 0.29 0.30 0.34 0.43 0.34 0.33 0.39 0.48 0.65 0.71 0.76 0.82 0.82 0.86 0.91 0.94 0.95 1.00 1.02 1.00 1.03 1.06 1.07 1.05 1.04 0.99 1.00 1.03 1.04 1.03 1.04 1.07 1.09 1.11 1.13 1.14 1.15 1.15 1.17 1.17 1.15 1.12 1.11 1.08 1.05 1.04 1.06 1.10 1.10 1.09 1.09 1.11 1.15 1.19 1.25 1.29 1.30 1.23 1.18 1.17 1.15 1.16 1.19 1.21 1.25 1.27 1.30 1.34 1.37 1.38 1.40 1.45 1.49 1.57 1.64 1.67 1.69 1.66 1.71 1.77 1.80
0.36 0.37 0.36 0.32 0.30 0.28 0.35 0.40 0.47 0.48 0.45 0.46 0.50 0.59 0.65 0.72 0.80 0.79 0.82 0.86 0.89 0.90 0.99 1.04 1.04 1.00 1.04 1.10 1.15 1.11 1.08 1.07 1.08 1.11 1.08 1.08 1.10 1.14 1.15 1.15 1.13 1.13 1.13 1.15 1.12 1.10 1.09 1.09 1.09 1.08 1.05 1.06 1.09 1.08 1.08 1.09 1.11 1.13 1.15 1.16 1.20 1.21 1.19 1.16 1.11 1.10 1.11 1.14 1.15 1.20 1.23 1.26 1.28 1.31 1.33 1.37 1.40 1.40 1.43 1.48 1.60 1.66 1.68 1.70 1.72 1.69
Wind_Speed
20 20 21 23 23 24 25 25 25 23 20 20 20 20 20 19 18 18 17 16 17 17 17 18 18 17 16 15 14 14 14 13 11 10 10 11 12 12 13 13 13 13 12 13 15 18 20 20 21 21 21 21 22 22 23 24 24 24 24 23 22 22 21 20 19 18 18 17 16 16 15 15 14 14 13 13 12 12 12 12 11 11 10 10 9 8
21 21 22 23 24 23 24 26 26 25 23 21 20 20 21 20 19 18 17 16 17 18 18 18 18 18 17 17 16 15 15 14 13 12 12 13 13 13 13 14 14 13 13 14 15 17 19 20 21 21 21 22 22 23 24 24 24 24 24 24 23 22 22 21 20 19 18 18 17 16 16 15 14 14 14 13 13 12 12 12 12 11 11 10 9 9
21 22 23 23 23 23 23 24 26 26 25 23 22 21 21 20 20 20 18 18 18 17 18 19 19 19 18 17 16 16 17 16 15 14 13 13 14 14 14 14 15 15 15 15 16 17 19 20 21 21 22 23 23 23 24 24 25 25 25 24 24 23 22 22 21 20 19 18 18 17 16 15 14 13 14 13 13 13 12 12 12 12 11 11 10 9
20 21 23 23 22 23 23 23 25 25 25 24 23 23 22 21 20 19 18 18 18 18 19 19 19 19 19 18 18 18 19 18 16 16 14 14 14 15 15 15 15 16 16 17 17 17 18 20 21 22 22 23 23 23 24 24 25 25 25 25 24 24 23 22 22 21 20 19 18 17 16 15 14 13 13 13 13 13 13 13 12 12 12 11 10 10
20 18 20 23 23 23 24 23 24 24 24 25 26 24 23 22 22 20 17 16 17 19 20 19 19 20 21 20 20 19 20 19 18 16 15 14 14 14 15 15 16 17 17 18 18 18 18 20 21 22 22 23 23 24 24 25 25 25 25 25 25 24 23 22 22 21 20 19 18 17 16 15 14 14 13 13 13 13 13 13 12 12 12 12 11 10
22 18 18 22 23 23 24 24 24 24 23 24 26 27 25 23 23 22 20 17 18 19 20 20 20 20 21 22 20 18 19 19 18 17 17 16 14 14 15 15 17 18 18 18 19 19 19 20 21 22 23 23 24 24 24 24 25 25 25 25 25 24 23 23 23 22 21 20 19 18 17 16 16 15 15 14 14 14 13 13 13 12 12 12 11 11
22 21 19 22 23 23 24 24 24 24 23 23 24 25 27 26 24 24 22 20 20 20 19 20 20 19 20 21 20 18 19 19 18 18 18 17 16 14 15 15 16 18 18 18 20 20 20 21 21 22 24 24 24 25 25 24 25 25 25 25 26 25 24 23 23 23 21 20 19 19 18 17 17 16 15 15 14 14 13 13 13 13 13 13 12 12
22 23 22 22 23 22 23 22 22 24 23 22 21 22 25 27 26 25 23 22 22 21 20 20 21 21 21 22 19 19 20 19 19 19 18 18 17 16 15 15 16 18 19 19 20 21 21 21 22 23 24 25 25 25 25 25 25 25 26 26 26 25 24 24 23 23 22 21 20 19 19 18 17 17 16 15 15 14 14 14 13 13 13 13 13 12
23 26 24 24 23 21 21 21 22 23 23 21 20 19 21 24 26 25 24 24 22 22 23 23 23 22 22 23 22 21 22 20 20 21 20 19 19 17 16 15 16 18 20 20 20 21 22 22 22 23 23 25 25 25 25 25 25 25 26 26 26 26 25 25 24 24 23 22 21 20 19 18 18 17 16 16 15 15 15 14 14 14 13 13 13 13
22 26 26 25 24 21 20 21 22 23 22 21 19 18 20 21 23 24 24 23 23 24 26 25 24 22 20 22 23 23 24 23 21 21 20 21 20 19 18 16 16 17 20 21 21 21 22 22 22 22 23 24 25 25 25 26 26 26 26 26 26 26 25 25 25 24 24 23 21 20 20 19 19 18 17 17 16 16 15 15 15 14 14 13 13 13
23 23 26 26 24 22 21 20 21 22 22 20 19 18 19 20 21 22 22 22 22 23 25 25 25 23 21 22 23 24 23 23 22 22 21 21 21 21 19 17 16 17 19 21 22 22 22 22 22 22 22 23 24 25 26 26 26 26 26 26 27 27 26 25 25 25 25 24 22 21 21 20 20 19 18 18 17 17 16 15 15 14 14 14 13 13
26 24 25 26 26 24 22 21 21 22 22 20 19 19 19 18 19 19 20 21 21 20 20 22 25 25 23 21 22 23 24 24 23 23 22 21 21 21 20 19 17 18 19 21 22 22 22 22 22 22 23 23 24 24 25 26 26 27 27 27 27 27 26 26 25 25 25 24 23 22 22 21 21 20 19 19 18 18 17 16 16 15 15 14 14 14
30 27 25 26 27 26 24 22 21 21 22 22 20 20 19 17 17 17 18 19 20 18 16 17 21 25 24 22 21 22 23 25 24 24 23 22 21 21 21 20 18 18 19 20 21 22 22 22 22 23 23 24 24 24 25 26 26 27 27 27 27 27 27 26 26 25 26 25 24 23 23 22 21 21 20 20 19 19 18 17 17 16 16 15 15 14
29 29 29 27 26 28 27 24 22 22 23 23 22 21 20 17 16 17 17 17 17 17 17 16 16 21 22 20 22 24 23 23 24 25 24 23 22 21 21 21 19 19 19 20 21 22 22 22 23 23 24 24 24 24 25 26 26 26 27 27 28 28 28 27 27 26 26 26 25 24 23 23 22 22 21 21 20 19 19 18 18 17 17 16 16 15
29 28 31 31 26 28 30 27 24 22 23 24 23 22 21 19 16 15 15 16 16 15 16 17 15 16 17 15 17 22 23 23 25 26 25 24 23 22 22 22 21 20 20 20 21 22 22 23 23 24 25 25 25 25 25 25 26 26 26 27 28 28 28 28 28 27 27 26 26 25 24 24 23 22 22 21 21 20 20 19 19 18 18 17 17 16
32 28 28 31 28 27 30 28 25 23 23 23 23 24 24 22 18 15 13 14 14 13 15 17 16 15 13 13 13 15 18 21 23 24 25 24 24 23 23 22 21 21 20 20 21 22 23 23 23 24 25 25 25 25 25 25 26 26 26 27 28 28 28 28 28 28 27 27 26 26 25 25 24 23 22 22 22 21 21 20 20 19 19 18 18 17
30 27 26 31 30 29 30 29 28 26 22 22 25 26 23 22 21 18 15 13 13 14 14 16 18 16 15 16 16 17 17 18 21 22 22 23 23 23 23 22 22 21 21 21 21 22 22 23 23 24 25 25 26 26 26 26 26 26 26 27 27 28 28 28 28 28 28 27 27 27 26 25 25 24 24 23 23 22 21 21 21 20 20 19 19 18
27 25 25 30 31 30 30 30 30 29 25 22 24 25 22 21 22 19 17 15 15 15 14 16 18 17 16 15 15 18 19 19 20 21 22 22 22 22 22 22 23 22 21 21 22 22 22 22 23 24 25 26 27 27 27 27 26 25 26 26 27 27 28 28 28 28 27 27 27 27 27 26 26 25 25 24 23 23 22 22 22 21 21 21 20 19
27 24 23 29 31 29 29 30 30 32 30 25 22 23 23 23 22 21 18 16 15 14 13 16 18 17 16 15 12 16 19 19 20 20 21 22 22 22 22 23 23 23 22 21 21 21 21 22 23 23 25 26 27 27 27 27 26 26 25 26 26 27 28 28 27 27 27 27 27 26 27 27 27 26 25 24 24 23 23 23 23 22 22 22 21 21
27 25 22 26 30 28 29 31 31 31 32 29 24 24 25 22 21 22 21 18 15 14 12 13 15 15 16 17 16 16 16 17 19 20 20 21 22 22 22 23 24 23 22 21 21 21 21 22 23 24 25 26 27 27 27 28 28 27 26 26 26 26 27 27 27 27 27 27 27 27 27 27 27 27 26 25 25 24 24 24 24 24 23 23 22 22
28 28 23 23 28 30 30 32 33 31 31 31 28 27 26 23 20 20 21 20 18 14 11 11 12 11 11 14 17 18 18 18 18 19 19 20 21 22 22 23 23 23 23 22 22 22 21 21 22 23 24 25 26 27 27 28 28 28 27 26 26 27 27 27 27 27 27 27 27 27 27 27 27 27 27 26 26 26 25 25 25 25 24 24 23 23
29 29 27 23 26 30 30 31 33 32 32 31 30 28 27 25 22 20 19 21 20 16 12 11 10 9 8 10 13 14 15 16 17 18 19 19 20 21 22 21 22 22 23 22 22 22 21 21 21 21 22 23 25 26 27 28 28 28 28 28 27 27 27 26 27 26 26 26 26 27 27 27 27 27 27 26 26 26 26 26 26 26 25 25 24 24
31 30 29 26 25 27 29 29 32 33 32 31 31 30 29 28 26 23 20 19 20 19 16 13 11 9 9 11 11 10 11 13 14 16 17 18 19 20 20 20 20 20 21 22 22 21 21 20 20 20 21 22 24 25 27 28 28 28 29 28 28 28 28 27 27 26 26 26 26 26 26 26 26 26 27 27 26 26 26 26 25 26 26 26 25 25
33 32 30 28 25 25 26 28 30 32 32 32 32 31 31 30 29 26 22 20 19 20 19 16 14 12 11 13 12 11 11 12 13 13 14 16 17 18 18 18 18 19 20 21 21 21 21 21 21 22 22 22 23 24 26 27 28 29 29 29 28 29 29 28 27 27 26 26 26 26 25 25 25 25 26 26 26 26 26 25 25 25 25 25 26 26
33 34 33 30 26 25 26 27 30 33 33 31 31 32 33 32 31 28 25 23 21 21 21 18 15 12 12 12 12 12 11 11 11 12 12 13 15 16 17 16 17 18 19 20 21 22 23 22 22 23 23 23 24 24 25 26 27 28 29 29 29 29 30 29 28 28 27 26 26 26 26 25 25 25 25 25 25 25 25 24 24 24 24 25 25 26
32 33 35 33 30 28 28 28 29 32 33 31 31 33 34 34 33 29 26 25 23 22 22 20 15 12 12 13 13 12 12 11 10 11 11 12 13 14 15 15 16 17 18 19 20 21 22 22 23 23 24 24 24 25 25 26 26 27 28 29 29 29 30 30 29 29 28 28 27 27 27 26 26 25 25 24 24 23 23 23 23 23 23 23 24 25
32 32 34 33 30 27 26 25 25 28 32 33 33 33 33 33 33 30 27 26 24 22 23 23 18 14 14 15 14 13 12 11 10 11 11 12 12 12 13 14 16 17 18 18 19 20 20 21 22 23 23 23 24 24 25 26 26 26 26 28 29 29 30 30 30 29 29 29 28 28 28 27 27 26 25 24 24 23 22 22 22 22 21 21 22 23
32 32 33 33 30 27 24 23 24 26 29 32 34 34 33 33 33 33 31 27 24 23 23 23 22 20 17 16 15 14 12 11 11 11 12 12 12 11 12 13 15 17 18 18 18 19 19 20 21 22 22 22 23 24 25 26 26 26 26 27 28 29 29 29 30 30 30 29 29 29 29 29 28 27 26 25 24 24 23 22 22 22 21 20 20 21
30 31 32 33 31 30 28 25 26 27 28 29 30 32 33 33 33 34 33 30 27 25 22 21 22 24 21 20 18 16 14 14 13 13 13 13 13 13 13 13 14 16 18 18 18 18 19 19 19 20 21 22 22 23 24 25 26 26 26 27 28 29 29 29 30 30 30 30 30 30 30 29 29 28 27 26 26 25 24 23 23 22 22 21 21 20
29 29 30 31 31 31 31 29 27 28 28 29 30 30 31 32 32 32 31 31 30 28 25 23 24 23 22 22 21 20 18 18 17 16 15 16 16 15 14 14 15 16 17 18 18 18 17 18 18 19 20 21 22 23 24 25 26 26 26 27 27 28 29 29 30 30 31 30 30 30 30 30 29 29 28 28 27 26 25 25 24 23 23 22 22 21
29 28 29 30 31 32 32 31 30 30 29 31 32 32 32 32 32 31 31 30 30 29 27 26 26 24 22 20 20 20 19 18 17 17 17 18 18 18 17 17 16 17 17 17 18 18 17 17 18 18 19 19 21 23 24 25 26 26 26 26 27 28 29 29 30 31 31 31 31 30 30 30 30 29 29 28 28 27 27 26 25 25 24 24 23 22
29 28 28 29 31 32 32 32 32 31 31 33 35 35 35 34 33 32 31 30 30 30 28 28 27 24 21 20 19 19 20 20 20 19 19 19 19 19 19 19 18 19 18 17 17 17 18 18 19 19 19 19 19 21 23 25 26 26 26 26 26 27 28 29 30 31 31 31 31 31 30 30 30 30 29 29 29 28 27 27 27 27 26 25 25 24
29 29 28 29 31 31 30 31 31 31 32 35 36 37 37 36 34 33 33 32 32 31 29 28 27 24 22 22 22 21 21 22 21 21 20 20 20 21 21 21 20 20 19 18 17 17 18 19 19 20 20 19 19 20 22 23 25 25 25 25 25 26 27 29 30 30 30 31 31 31 31 30 30 30 30 30 29 29 28 28 28 28 27 27 26 25
30 31 30 29 30 30 28 29 30 31 32 32 31 34 36 36 36 35 34 34 33 32 31 29 26 24 22 22 22 21 21 21 21 21 21 21 21 21 21 22 21 20 20 20 19 19 19 19 20 20 20 20 20 20 21 22 23 24 24 24 25 25 26 27 28 29 29 30 31 30 30 30 30 30 30 30 30 30 29 29 29 29 29 28 28 27
32 32 31 31 31 31 29 29 31 31 30 28 27 28 32 34 34 34 33 32 32 32 31 30 29 27 24 23 22 22 21 22 22 22 22 22 21 21 21 22 22 21 21 21 20 20 20 20 21 20 20 20 20 20 21 21 22 22 23 24 24 25 26 27 27 28 28 29 30 30 30 30 30 30 30 30 30 30 30 30 30 30 30 30 30 29
34 33 32 32 32 32 30 31 31 28 26 27 28 27 29 31 32 33 34 34 33 32 31 30 28 27 26 25 24 24 23 23 23 22 22 23 23 22 22 22 22 22 21 20 20 20 20 21 21 21 21 20 20 20 21 21 21 22 23 24 24 25 26 27 27 27 27 28 28 28 29 29 29 30 30 30 30 31 31 31 31 31 31 31 31 31
36 34 33 33 33 33 32 32 32 29 28 29 29 27 27 28 29 30 32 32 31 30 30 30 29 28 27 26 25 24 23 22 23 23 23 24 24 24 24 23 22 22 21 21 21 21 21 22 22 22 22 21 21 20 21 21 21 21 22 23 24 24 25 26 27 27 27 26 27 27 27 28 29 29 29 30 30 30 31 31 31 31 31 31 32 32
37 36 34 34 34 34 33 32 31 31 31 30 29 27 27 27 27 28 29 28 27 27 28 29 29 28 28 27 26 25 23 24 24 23 22 23 24 24 23 23 22 22 21 21 21 21 21 22 23 23 23 22 22 21 21 21 21 21 22 23 24 25 25 26 27 27 27 26 26 26 27 27 28 28 28 29 29 30 30 30 31 31 31 31 32 32
39 37 36 35 35 35 35 34 32 31 29 27 28 28 28 27 27 27 29 29 28 26 26 27 27 27 26 25 25 24 24 25 24 21 19 19 20 20 21 21 21 21 21 21 21 21 21 21 22 23 23 23 23 22 22 22 22 22 22 22 24 25 25 26 27 27 27 26 26 26 27 27 27 27 28 28 29 29 29 29 30 30 30 31 32 32
38 37 37 37 37 36 36 35 33 31 28 27 27 27 27 27 27 27 28 28 27 25 25 27 27 26 25 25 24 24 25 25 23 20 19 19 19 20 20 21 21 21 21 21 20 21 21 21 21 23 23 23 23 23 23 23 23 23 23 22 23 24 25 26 27 27 27 27 27 27 27 27 27 28 28 29 29 29 29 29 29 29 30 31 31 32
36 37 37 38 38 38 38 36 34 32 30 29 29 28 26 26 27 28 27 26 25 25 24 25 26 26 26 25 25 25 25 25 23 22 21 21 21 21 21 21 22 21 21 21 20 21 20 20 20 21 22 22 23 23 23 23 23 23 23 23 23 23 24 24 25 26 26 27 27 27 28 28 28 28 28 28 29 29 29 30 30 30 31 31 32 32
35 36 37 38 38 38 38 37 36 33 31 31 32 31 29 28 27 26 26 26 26 25 24 24 25 25 25 26 26 26 26 26 25 25 23 22 22 22 22 22 22 21 21 21 21 20 20 19 19 19 20 21 22 23 23 23 23 24 24 24 23 24 23 23 24 25 25 25 26 27 28 28 28 28 28 28 29 29 30 30 31 32 32 32 32 32
33 34 36 38 38 38 38 38 36 34 31 29 31 31 31 30 28 26 27 28 27 26 26 25 25 24 24 25 26 26 26 26 26 25 24 24 23 23 23 23 22 22 21 21 21 20 19 19 19 19 19 20 21 22 22 22 22 24 25 24 24 24 24 24 25 25 25 25 25 26 27 28 29 29 29 29 29 29 30 30 31 31 31 31 31 31
33 33 33 35 35 37 39 38 35 33 31 30 31 32 31 31 30 29 29 29 28 27 27 26 25 25 25 25 26 26 26 26 25 25 25 25 25 24 24 23 23 23 22 20 20 20 19 19 18 18 19 19 20 20 21 21 21 22 23 23 23 23 24 24 25 26 26 25 25 26 27 27 28 29 29 29 30 30 30 30 31 31 31 31 31 31
31 31 32 33 34 36 38 38 35 35 34 32 32 32 31 30 30 30 31 31 30 29 28 27 26 26 26 26 27 26 26 26 25 25 26 26 25 25 24 23 23 23 22 21 20 20 19 19 18 17 17 18 19 20 20 20 21 21 21 21 22 22 23 24 24 25 25 25 26 26 26 27 28 29 29 29 30 30 30 30 30 31 31 31 32 32
30 30 32 34 35 36 38 39 38 39 38 35 33 33 32 32 31 30 30 31 31 30 29 28 28 27 27 27 27 26 26 26 26 26 26 26 26 25 25 24 23 23 22 22 21 20 20 19 18 17 17 17 18 19 19 20 20 21 21 22 22 22 23 23 23 24 24 25 25 26 26 27 28 28 29 30 30 30 31 31 31 31 32 32 32 33
29 30 32 34 35 36 37 38 39 39 40 38 36 35 34 34 33 31 30 30 30 31 30 29 28 28 27 27 26 26 26 26 26 26 26 26 26 25 25 24 23 22 21 21 21 21 20 19 19 18 17 17 17 18 18 19 20 21 22 22 23 23 23 23 23 24 24 25 25 26 26 27 27 28 29 30 30 31 31 32 32 32 32 32 33 33
27 28 31 33 35 36 37 38 39 40 41 40 38 37 35 35 34 33 32 31 31 31 31 30 28 28 27 27 27 26 26 25 25 26 26 26 26 25 24 24 22 21 21 21 21 21 20 19 19 19 18 18 18 18 18 18 19 19 20 21 22 22 23 23 24 24 24 24 25 25 26 27 27 28 28 29 30 30 31 31 32 32 32 33 33 34
27 29 31 32 34 36 38 38 39 40 40 41 40 39 36 34 34 33 33 33 32 31 31 30 28 27 26 27 26 26 26 26 26 26 26 26 25 25 24 24 23 22 21 21 21 21 21 20 20 19 19 19 18 18 18 19 19 19 20 20 21 21 21 22 23 23 23 24 24 24 25 25 26 27 28 28 29 30 30 31 31 32 32 33 33 34
28 29 30 31 33 35 35 35 36 37 38 39 39 38 36 34 33 33 33 33 33 32 31 31 29 27 26 26 26 26 25 25 25 26 26 25 25 25 24 24 24 23 22 22 22 22 21 21 21 20 20 19 19 19 19 19 20 20 20 21 21 22 22 22 22 23 23 23 24 24 25 25 26 26 27 28 29 29 30 30 30 31 32 33 34 34
27 28 29 31 33 34 34 35 35 37 38 39 39 39 38 37 35 34 33 33 33 33 32 31 30 28 27 27 26 26 25 24 24 24 25 25 25 25 24 24 24 24 23 23 22 22 22 22 22 21 20 20 20 19 19 19 20 20 21 21 22 22 23 23 23 24 24 24 25 25 25 26 26 27 27 28 29 29 29 30 30 31 33 34 36 36
Wind_Direction
209 214 217 217 218 216 216 216 218 220 222 224 222 221 222 222 220 217 217 217 219 226 228 230 233 231 230 228 226 224 221 222 223 223 221 215 211 211 210 210 210 208 205 198 195 194 192 192 192 192 193 194 194 195 195 195 195 195 194 194 193 193 193 192 191 192 194 195 196 197 199 200 201 201 202 204 206 206 205 204 203 201 200 202 203 203
212 219 220 217 217 218 218 218 218 221 222 223 223 223 225 225 224 221 219 218 221 228 231 231 234 234 233 234 233 226 222 225 225 223 223 218 215 214 214 213 211 209 206 199 194 193 194 193 192 193 194 195 196 196 197 198 197 197 196 196 196 195 196 196 196 197 198 199 199 199 200 201 201 203 204 205 206 207 206 204 203 202 203 204 205 206
216 222 221 216 217 219 220 220 219 221 223 224 225 226 227 225 225 225 222 222 225 228 232 235 237 238 236 236 233 227 226 228 227 227 225 220 217 215 215 214 212 209 205 200 195 193 194 195 194 194 195 196 197 198 199 199 199 198 198 198 198 198 198 199 199 200 201 201 202 201 202 201 200 202 205 206 207 207 206 205 204 205 206 207 208 208
217 222 220 216 216 217 218 218 217 220 224 226 226 226 227 225 225 226 221 222 226 229 235 240 242 240 238 236 234 232 232 231 229 228 227 222 218 216 215 214 213 210 206 202 197 194 195 196 196 196 196 196 196 198 199 200 200 200 200 200 200 200 200 201 201 201 202 202 203 203 203 203 201 201 204 206 207 207 206 207 207 207 208 209 210 210
219 222 217 215 216 216 215 215 216 220 224 227 227 226 227 227 227 228 223 220 225 229 234 240 245 241 237 237 237 233 230 230 229 227 226 224 222 220 217 216 214 212 207 204 201 198 197 197 198 198 197 197 197 199 200 201 201 202 202 201 201 201 201 202 201 201 202 202 202 202 203 203 203 203 205 206 207 207 207 208 209 210 210 210 211 212
223 221 215 213 214 215 216 218 218 219 224 226 226 226 227 229 230 230 230 229 231 231 230 235 242 240 235 237 238 230 223 225 226 225 224 223 223 222 220 217 215 212 209 207 204 201 200 200 199 199 199 199 199 201 202 202 202 202 202 202 201 202 202 202 201 201 202 202 202 202 203 204 205 207 208 209 209 209 209 210 211 212 212 212 213 215
224 220 215 213 213 214 218 222 219 217 222 226 224 224 226 229 231 231 232 233 233 234 231 231 237 242 238 235 232 225 222 222 223 223 222 221 221 221 219 217 214 213 212 209 206 204 202 201 199 199 201 201 201 202 202 203 203 203 203 202 202 202 203 203 202 202 202 203 203 204 205 207 208 210 211 211 210 211 212 213 213 215 216 215 216 218
220 217 213 211 213 216 219 221 218 215 220 224 223 223 224 225 228 231 233 235 236 238 235 230 235 244 243 235 229 225 223 220 220 221 220 219 220 218 217 217 215 213 212 210 207 204 203 202 201 201 202 204 203 202 202 203 203 204 203 203 203 203 203 204 203 204 204 204 204 206 207 209 211 212 212 211 211 211 213 214 215 217 219 219 219 221
217 216 212 210 213 217 218 219 215 213 219 222 221 223 223 222 225 229 233 236 238 239 237 233 234 242 244 237 232 230 226 221 221 222 220 218 217 216 216 217 218 216 212 210 208 205 203 203 202 202 204 205 204 203 203 204 204 204 204 204 204 204 204 205 205 205 206 205 205 207 208 210 212 213 213 212 212 212 213 215 216 218 221 221 221 222
218 218 215 213 215 218 217 217 215 213 217 220 219 221 221 222 225 228 232 234 236 238 239 235 233 239 245 239 231 229 227 224 225 225 222 219 216 216 217 218 219 217 213 211 210 207 205 204 203 203 204 204 204 204 204 204 204 204 205 205 205 205 206 207 207 208 208 207 207 208 209 211 212 213 213 214 214 215 216 217 218 220 223 224 223 224
222 219 218 218 218 218 217 217 216 214 215 217 217 219 221 224 226 227 230 232 236 240 239 236 233 238 246 241 231 229 228 226 226 226 222 218 217 216 216 218 218 216 214 211 210 209 207 205 204 203 203 203 204 205 205 205 205 205 205 206 207 207 208 209 209 209 210 210 210 210 210 212 213 213 214 214 216 218 219 220 221 223 224 226 227 227
221 218 219 220 218 218 217 218 217 214 214 216 216 218 221 223 223 226 226 227 234 240 237 235 233 235 241 240 232 231 230 226 225 225 221 216 217 216 215 217 217 215 213 211 210 210 208 206 203 202 203 203 203 204 204 205 205 206 207 207 208 208 209 210 210 210 211 212 212 211 212 213 214 215 216 216 217 219 221 222 224 225 226 228 228 229
221 221 221 218 216 215 215 217 215 212 213 215 215 215 217 216 216 221 222 224 233 237 236 235 231 231 237 239 236 234 231 226 224 225 222 218 218 217 213 215 215 213 211 210 209 210 208 206 204 203 202 203 203 205 206 206 206 207 209 209 209 209 210 211 211 211 212 213 214 214 214 215 216 217 218 219 220 220 222 224 225 226 228 229 229 230
221 222 221 216 215 214 214 215 214 212 212 213 213 213 213 213 214 218 220 225 233 234 232 231 230 233 239 242 237 233 229 225 222 223 223 220 219 218 214 213 214 211 210 210 209 210 209 207 205 204 203 203 205 206 206 207 207 208 209 209 210 210 210 210 212 212 213 214 216 216 216 217 218 219 220 221 222 223 224 225 226 228 229 230 231 231
218 221 219 215 213 212 213 216 215 214 214 214 214 215 217 217 218 220 222 226 230 231 224 220 225 234 236 237 234 230 226 223 222 224 224 223 220 219 215 213 213 211 210 210 210 210 210 209 207 206 205 204 206 206 205 206 206 207 209 209 210 210 210 210 211 212 213 215 217 217 217 218 219 220 221 223 224 225 226 226 227 229 231 233 233 233
220 223 218 214 214 213 212 215 215 213 215 215 215 217 219 219 221 225 230 232 233 232 222 217 225 232 232 234 231 225 220 218 219 220 221 221 219 217 216 213 213 211 209 210 210 211 211 210 209 208 207 206 207 206 205 206 207 207 209 209 210 210 210 211 212 213 214 216 218 218 219 220 221 222 223 224 224 226 227 228 229 230 231 234 235 235
220 223 216 210 213 213 211 212 212 212 214 213 215 219 220 219 222 227 232 233 234 234 225 221 229 234 238 242 234 223 219 216 216 215 215 217 216 215 214 213 212 211 210 210 210 210 210 210 210 209 208 208 207 207 206 207 208 208 209 209 210 211 212 212 213 214 216 217 219 220 221 222 222 223 224 225 225 226 228 229 230 231 232 234 236 236
219 221 214 209 210 212 210 211 213 214 215 214 215 216 215 217 222 225 227 226 226 232 230 225 230 232 233 238 229 220 218 215 214 213 212 213 213 213 212 212 212 211 210 210 209 208 208 209 210 210 209 209 209 209 209 209 209 209 209 210 210 211 212 214 215 216 217 218 220 221 222 223 223 224 226 227 227 227 228 230 231 233 233 234 236 237
217 218 214 209 209 209 207 210 214 215 216 219 218 213 211 214 217 218 222 223 222 229 232 228 230 231 229 229 223 217 216 215 213 212 212 212 212 214 213 211 211 212 211 210 208 207 208 209 211 211 211 211 212 212 212 211 210 210 210 211 211 212 213 214 216 217 218 219 221 222 223 224 224 225 226 227 228 228 229 231 232 233 234 235 236 237
217 217 216 211 209 207 207 212 215 213 214 218 218 214 214 217 217 216 220 223 224 228 231 227 226 228 230 228 226 221 215 212 213 213 214 214 212 214 215 212 211 211 211 209 207 207 207 208 210 211 212 212 212 213 213 213 213 212 212 212 213 214 215 216 217 218 219 220 221 222 223 224 225 227 228 229 229 230 231 232 233 234 235 235 236 237
218 218 218 211 207 207 211 214 214 212 211 213 215 215 214 215 218 220 222 223 225 227 228 227 224 221 224 225 225 225 221 217 218 216 215 215 214 214 214 213 211 210 209 208 208 207 206 207 209 210 212 212 212 213 214 214 215 215 215 215 215 215 216 217 218 219 220 221 222 223 223 225 226 227 228 230 231 232 234 234 234 235 236 236 237 237
218 217 217 211 206 211 215 215 214 214 213 213 216 216 214 214 217 219 221 222 224 226 225 226 225 217 213 214 213 215 217 218 219 219 217 216 216 214 213 213 212 210 210 210 210 209 207 207 208 209 211 212 214 215 215 215 216 217 217 218 219 218 218 218 219 220 221 221 222 223 224 225 226 227 229 231 232 234 235 236 236 237 237 238 238 238
218 217 217 214 211 214 217 215 214 215 214 215 218 218 216 217 217 218 220 219 221 225 226 226 230 223 207 201 201 207 217 219 217 216 216 216 215 214 214 215 213 210 210 212 213 212 210 209 209 210 211 214 216 217 216 216 217 218 220 220 220 220 220 220 220 221 221 221 222 222 223 225 227 229 230 231 233 235 236 237 238 238 238 239 240 240
217 216 216 216 215 215 216 214 214 215 214 216 218 218 217 218 218 220 223 221 222 223 221 221 226 224 209 206 215 222 220 215 212 211 213 214 213 213 215 216 216 212 209 210 212 213 213 213 212 213 215 217 219 218 218 217 218 220 221 221 221 222 222 222 221 221 222 222 222 222 223 225 226 228 230 231 233 234 235 237 238 239 239 239 240 241
215 214 214 215 213 210 211 212 213 214 215 217 218 217 217 218 218 221 223 225 226 224 218 217 220 217 208 207 212 210 204 203 205 207 208 210 212 214 215 214 212 212 211 212 213 213 214 216 216 217 220 222 223 222 220 219 219 220 221 222 222 223 223 223 223 222 223 224 224 224 224 224 225 227 229 230 231 232 233 235 237 238 238 239 240 240
214 214 213 213 214 212 211 213 213 213 214 216 217 216 216 217 217 219 221 223 225 223 220 220 217 205 198 203 206 204 203 203 202 205 207 208 210 212 212 211 211 213 215 215 215 216 216 218 220 222 223 224 224 223 222 221 220 221 221 222 222 222 222 222 222 223 223 224 225 225 225 225 226 228 229 230 231 231 232 234 236 237 238 239 239 240
214 215 214 215 218 217 215 215 217 216 214 214 215 215 215 216 216 217 220 222 222 223 224 223 218 207 197 201 206 205 203 203 203 208 211 209 209 208 208 211 213 213 214 215 216 217 218 220 222 224 224 223 223 222 222 222 222 222 222 222 222 222 222 222 222 222 223 224 225 225 226 226 227 228 230 231 231 232 233 234 235 236 238 239 239 240
214 215 215 217 219 219 218 219 219 217 215 214 215 215 216 216 216 218 221 222 221 223 225 221 218 216 208 202 206 208 212 215 213 215 215 212 213 213 209 210 213 213 212 213 214 216 219 222 225 227 227 226 224 223 222 222 223 223 223 223 222 222 222 222 221 222 223 224 224 225 226 227 228 229 230 232 232 233 234 235 236 237 238 239 240 240
214 215 215 217 220 220 220 221 219 217 217 217 217 217 217 217 217 219 223 224 223 225 227 221 219 221 219 218 222 225 227 227 225 226 225 221 221 221 216 217 221 217 211 211 214 218 222 225 227 228 228 228 227 224 223 223 224 225 225 225 224 223 222 222 221 222 223 224 225 226 226 227 229 230 231 232 233 234 234 235 236 237 238 240 241 242
214 215 215 218 221 221 220 221 220 219 220 220 220 220 220 220 221 222 225 225 226 228 229 226 226 226 224 226 232 235 234 234 234 234 233 231 232 232 228 227 229 224 218 217 218 220 225 227 227 227 228 229 229 227 225 226 226 227 227 227 225 224 222 222 221 222 223 224 226 227 227 227 229 231 232 232 233 234 235 236 237 238 239 240 243 244
215 216 217 219 221 220 220 221 221 222 223 224 225 224 224 224 224 224 225 226 227 229 229 230 231 230 227 228 232 234 234 234 234 235 236 236 237 237 235 233 230 227 228 230 226 225 229 231 229 228 227 227 229 229 228 229 229 229 228 227 227 225 223 222 222 223 225 226 227 227 227 228 230 231 232 233 234 234 235 236 238 239 240 241 243 245
217 218 217 217 219 218 218 219 221 224 227 229 228 226 225 225 225 226 226 226 227 229 230 231 232 231 229 230 232 233 235 237 238 238 239 239 238 239 238 235 231 230 234 239 237 233 235 234 232 231 230 229 229 229 230 230 230 230 230 228 227 226 224 222 223 224 226 226 226 227 228 229 230 232 233 234 234 235 236 237 238 239 240 241 243 246
218 219 217 216 217 216 215 218 222 225 227 230 229 226 225 225 226 227 228 228 228 229 229 231 232 232 232 232 233 234 235 237 238 239 240 240 240 240 238 235 235 237 240 243 242 239 238 237 235 234 233 232 231 229 230 230 230 231 232 229 226 225 224 222 223 224 226 226 226 227 228 229 231 232 233 234 235 236 237 237 239 240 241 242 244 247
218 218 218 217 216 215 215 219 222 223 225 227 227 225 224 225 226 227 229 228 228 228 230 232 234 234 232 231 232 233 234 237 239 240 241 240 239 239 238 238 239 241 242 244 244 243 242 240 238 236 235 235 233 231 232 231 231 232 230 227 225 225 225 223 223 224 225 226 226 227 228 230 231 233 233 234 235 236 237 239 239 241 242 243 245 247
219 218 218 218 217 218 220 220 220 221 223 223 223 223 224 225 226 228 229 229 229 230 232 233 234 233 232 232 235 236 238 240 241 241 241 241 241 240 240 241 241 241 242 243 244 244 243 240 238 237 236 236 235 233 232 232 232 230 228 226 226 225 225 224 223 223 226 227 227 228 229 230 232 233 234 235 236 237 238 239 240 241 243 244 246 248
219 219 219 219 218 220 221 219 218 219 221 222 223 223 223 223 224 227 230 231 231 233 233 232 233 233 234 236 238 239 241 242 242 241 242 243 243 242 242 242 242 242 241 241 242 243 243 241 240 239 238 237 237 235 233 232 232 230 227 225 225 225 224 224 223 224 226 227 228 229 230 231 232 233 234 235 236 238 239 240 241 243 244 245 247 249
219 220 220 220 219 220 221 221 221 224 226 225 223 221 221 221 223 226 230 230 229 231 233 233 234 236 237 238 239 240 242 243 241 240 242 243 242 240 241 242 242 241 241 242 244 244 244 244 242 241 240 238 237 236 233 231 231 230 227 224 224 225 224 223 224 225 226 228 229 230 231 232 233 235 236 237 238 239 240 241 242 244 245 246 248 249
218 219 220 220 220 219 221 223 223 225 227 225 221 219 220 222 224 226 229 229 227 230 233 234 235 237 237 238 240 241 241 241 240 239 242 243 240 237 237 238 239 240 242 243 245 245 245 245 244 242 241 239 238 236 234 232 230 229 227 225 225 225 225 225 226 227 228 229 230 231 232 232 234 235 237 238 239 240 240 241 243 244 246 248 249 250
218 219 220 221 221 220 221 222 222 223 224 220 219 220 221 224 226 226 229 231 230 231 234 235 235 236 236 237 239 239 238 239 238 238 242 243 239 235 235 236 236 238 240 242 243 245 246 247 246 244 241 239 238 236 234 233 230 228 227 226 225 225 226 228 230 230 230 231 232 233 233 233 235 237 238 239 239 240 241 242 244 246 248 250 250 250
217 219 219 221 222 221 221 222 222 223 223 219 218 220 221 223 225 226 228 230 229 231 235 236 237 238 237 237 237 235 235 236 237 239 243 245 241 238 237 236 236 238 240 241 242 244 246 246 245 243 240 238 237 236 235 233 230 228 227 226 226 227 229 231 232 232 233 234 235 236 235 236 237 239 240 241 241 241 242 244 245 247 249 250 250 250
216 218 219 221 221 221 222 223 223 224 224 222 221 220 221 223 225 226 228 227 227 230 233 234 236 237 237 238 238 235 236 239 242 244 246 245 243 240 238 237 237 238 240 241 243 243 243 243 243 241 239 238 238 237 235 233 231 229 228 227 228 230 230 232 233 233 234 235 237 238 238 238 239 240 241 243 243 244 245 247 248 250 250 250 250 250
215 217 219 221 222 222 222 223 225 225 224 224 225 224 225 226 226 227 227 226 227 230 232 232 235 235 235 236 237 238 240 243 245 245 245 245 243 242 240 239 238 238 240 241 241 241 241 241 242 241 240 239 238 236 235 234 232 230 230 231 232 233 233 234 234 235 236 237 238 240 240 240 241 241 241 243 245 246 247 249 250 251 251 250 250 251
216 217 219 220 221 222 222 222 223 223 223 226 227 225 224 227 230 231 230 229 230 233 234 235 235 235 236 237 238 239 242 244 244 244 244 244 243 241 240 240 240 240 241 242 241 240 241 242 242 242 241 238 236 236 235 234 233 232 233 234 234 235 235 236 237 238 239 240 241 241 241 241 241 242 243 245 246 248 250 250 250 251 251 250 249 251
219 219 220 219 219 221 221 220 221 223 224 227 228 226 227 231 234 235 235 235 235 235 236 237 237 237 238 240 240 242 243 243 243 244 243 242 242 240 240 240 240 240 241 242 241 240 240 242 243 243 242 238 236 235 235 233 232 232 233 234 235 235 235 236 238 240 241 243 243 243 243 243 243 244 245 246 248 250 251 251 251 251 251 250 250 252
219 221 223 222 221 223 223 224 226 228 228 229 229 229 231 235 236 236 237 238 237 237 238 238 239 239 239 240 241 241 242 242 243 243 242 241 240 240 239 239 239 239 239 240 240 239 238 240 242 244 244 240 236 235 234 233 231 230 232 234 236 236 237 238 239 240 242 243 244 244 245 245 246 246 247 248 250 251 252 251 251 252 251 251 251 252
222 223 224 225 226 228 228 228 229 230 231 232 233 232 234 236 236 237 238 238 238 239 238 239 240 241 240 240 240 240 240 241 241 241 241 240 239 238 239 238 238 238 238 238 239 238 237 238 240 243 244 242 239 237 236 234 233 232 234 236 238 239 240 240 241 241 242 243 244 245 245 246 247 248 249 251 252 253 252 252 252 252 252 252 252 254
225 224 225 227 229 230 229 228 229 231 233 234 235 234 235 236 236 237 238 238 239 239 239 239 240 240 239 239 240 240 239 239 240 241 241 240 239 238 238 238 238 237 237 238 238 238 237 237 238 240 241 242 242 240 238 236 236 236 237 238 240 240 241 242 243 243 244 244 245 246 246 247 249 250 250 251 252 252 252 252 253 254 254 254 255 256
225 226 228 229 230 231 231 231 232 234 236 235 234 234 234 235 236 238 238 239 239 239 239 239 240 240 239 238 239 240 239 240 242 242 241 240 239 238 237 237 237 236 236 237 238 238 237 236 236 236 238 240 242 242 242 241 241 241 241 242 242 243 243 243 244 245 246 246 247 249 249 249 250 250 251 252 252 252 253 253 254 255 255 256 257 258
229 231 231 231 232 233 234 234 234 235 235 233 232 232 232 233 235 238 239 239 239 239 238 238 238 239 239 238 238 240 240 240 242 243 241 240 240 239 237 236 235 235 236 236 237 238 238 237 236 236 237 240 242 243 243 244 244 244 245 246 246 246 246 246 246 247 248 248 249 250 250 250 251 251 252 252 253 254 255 255 256 257 257 258 259 261
232 233 233 233 234 234 233 233 233 233 232 231 230 231 233 233 235 237 238 239 240 239 239 239 238 239 240 239 239 239 238 239 241 242 240 240 240 239 237 236 235 234 234 234 235 236 237 237 236 236 237 240 241 242 243 244 245 246 246 247 247 247 246 246 247 248 249 250 250 251 251 251 252 253 253 254 255 256 257 258 258 258 259 260 262 263
233 234 235 235 236 236 235 236 236 235 234 232 232 234 234 234 235 236 238 239 239 239 239 239 237 237 239 240 239 237 236 237 238 238 238 237 237 236 235 234 234 233 233 233 234 234 235 235 236 237 237 239 241 242 243 245 246 247 247 248 248 247 247 246 247 248 249 250 251 251 252 253 254 255 256 256 257 258 259 260 260 261 261 262 263 264